Content
SEND FEEDBACK

Daily
Averages
Monthly
Summary
United States of America

LUTSEN, MINNESOTA


Home > North America > United States > Minnesota
Elevation: 62 feet     Latitude: 47 43N     Longitude: 090 20W

WEATHER
 
SELECT A DAY
Number of Records: 137,115;   Date Range: 7/30/98 - 10/30/14
 
SHARE

PRINT THIS DATA

[ ← Previous Day ]
WEATHER ALMANAC - JULY 12, 2014
[ Next Day → ]
[ °C ]   °F
Weather ElementAverageHighLow
Temperature54 °F66.9 °F (1:56 pm)43 °F (2:56 am)
Dewpoint48.9 °F57 °F (12:56 am)42.1 °F (1:56 pm)
Humidity83.4 %100 % (5:56 am)65 % (8:56 am)
Barometer29.91 in29.98 in (7:56 pm)29.76 in (7:56 pm)
Wind Speed3.9 mph12.7 mph (10:56 am)
Wind Gust18.4 mph (4:56 am)
Weather ElementAverage
Wind DirectionS (179.6 °)

Weather ElementTotal
Precipitation---
Heating Degree Days10.1 (Base 65)
Growing Degree Days5 (Base 50)
Averaged from 24 records on July 12, 2014
WEATHER CONDITIONS BREAKOUT
WIND DIRECTION BREAKOUT
WEATHER BY HOUR - JULY 12, 2014
[ °C ]   °F
Local TimeTemperatureDewpointHumidityBarometerVisibilityWind DirectionWind SpeedGust SpeedPrecipitationEventsConditions
12:56 AM55.0 °F54.0 °F96 %29.94 inCalm
1:56 AM46.9 °F46.9 °F100 %29.94 inSW (220°)5.8 mph
2:56 AM44.1 °F43.0 °F96 %29.93 inWest (270°)3.5 mph
3:56 AM43.0 °F42.1 °F97 %29.93 inCalm
4:56 AM43.0 °F42.1 °F97 %29.94 inSouth (190°)3.5 mph
5:56 AM64.0 °F57.0 °F78 %29.94 inNorth (350°)12.7 mph
6:56 AM66.9 °F55.9 °F68 %29.95 inVariable5.8 mph
7:56 AM62.1 °F53.1 °F72 %29.98 inVariable3.5 mph
8:56 AM64.9 °F53.1 °F65 %29.97 inSSW (210°)4.6 mph
9:56 AM59.0 °F51.1 °F75 %29.97 inCalm
10:56 AM64.0 °F54.0 °F70 %29.96 inWSW (240°)3.5 mph
11:56 AM55.9 °F50.0 °F80 %29.96 inWest (260°)3.5 mph
12:56 PM52.0 °F48.0 °F86 %29.96 inSW (230°)4.6 mph
1:56 PM51.1 °F46.0 °F83 %29.95 inWSW (240°)3.5 mph
2:56 PM53.1 °F48.0 °F83 %29.94 inWest (260°)3.5 mph
3:56 PM55.0 °F48.0 °F77 %29.92 inVariable3.5 mph
4:56 PM55.9 °F48.9 °F77 %29.89 inWSW (250°)4.6 mph
5:56 PM55.9 °F51.1 °F84 %29.86 inWest (260°)3.5 mph
6:56 PM53.1 °F48.0 °F83 %29.83 inWSW (240°)3.5 mph
7:56 PM48.9 °F45.0 °F86 %29.84 inWSW (250°)3.5 mph
8:56 PM46.0 °F44.1 °F93 %29.81 inWSW (250°)4.6 mph
9:56 PM46.0 °F45.0 °F96 %29.80 inWSW (250°)4.6 mph
10:56 PM48.0 °F46.0 °F93 %29.78 inCalm
11:56 PM63.0 °F52.0 °F67 %29.76 inNNW (340°)8.1 mph18.4 mph
Hourly data recorded from KGNA, located miles away from Lutsen, Minnesota







STORIES FROM OUR PARTNERS